Flag for U.S.A. Weather past 2 weeks in Pasco, Washington, U.S.A.

Now
66 °F

Sunny.


Feels Like: 66 °F
Forecast: 50 / 68 °F
Wind: 25 mph from Southwest

Location: Tri-Cities Airport

Current Time: Oct 21, 2014 at 3:38:06 PM

Latest Report: Oct 21, 2014 at 2:53 PM


Visibility: 10 mi

Pressure: 29.94 "Hg

Humidity: 49%

Dew point: 46 °F

Location of PascoLocation

Historic Weather in Pasco — Graph

°F

Pasco temperature yesterday

Maximum temperature yesterday: 73 °F (at 1:53 PM)
Minimum temperature yesterday: 41 °F (at 3:53 AM)
Average temperature yesterday: 55 °F

Past Weeks' High & Low Weather Summary

 TemperatureHumidityPressure
High88 °F (Oct 6, 4:53 PM)100% (Oct 9, 4:53 AM)30.23 "Hg (Oct 9, 4:53 AM)
Low41 °F (Oct 9, 6:53 AM)24% (Oct 11, 2:53 PM)29.54 "Hg (Oct 15, 1:53 AM)
Average60 °F69%29.90 "Hg
* Reported Oct 6 1:53 PM — Oct 21 1:53 PM, Pasco, Weather by CustomWeather, © 2014

Note: Actual official high and low records may vary slightly from our data, if they occured in-between our weather recording intervals... More about our weather records

Advertising

Pasco weather history for previous 24 hours

 ConditionsComfort  
Time TempWeatherWind HumidityBarometerVisibility
1:53 PM
Oct 21
66 °FSunny.20 mph52%29.94 "Hg10 mi
12:53 PM64 °FSunny.21 mph56%29.95 "Hg10 mi
11:53 AM62 °FPassing clouds.23 mph60%29.95 "Hg10 mi
10:53 AM60 °FSunny.21 mph65%29.94 "Hg10 mi
9:53 AM58 °FSunny.18 mph70%29.93 "Hg10 mi
8:53 AM56 °FSunny.12 mph75%29.93 "Hg10 mi
7:53 AM51 °FClear.8 mph86%29.90 "Hg10 mi
6:53 AM52 °FClear.9 mph86%29.89 "Hg10 mi
5:53 AM52 °FClear.7 mph89%29.88 "Hg10 mi
4:53 AM54 °FClear.13 mph83%29.86 "Hg10 mi
3:53 AM56 °FPassing clouds.7 mph75%29.85 "Hg10 mi
2:53 AM53 °FClear.10 mph86%29.84 "Hg10 mi
1:53 AM54 °FClear.5 mph86%29.83 "Hg10 mi
12:53 AM55 °FClear.No wind90%29.83 "Hg10 mi
11:53 PM
Oct 20
54 °FClear.12 mph97%29.85 "Hg10 mi
10:53 PM55 °FClear.12 mph93%29.85 "Hg10 mi
9:53 PM55 °FLight rain. Mostly cloudy.13 mph93%29.83 "Hg10 mi
8:53 PM54 °FLight rain. Mostly cloudy.10 mph93%29.84 "Hg10 mi
7:53 PM55 °FLight rain. Overcast.5 mph90%29.84 "Hg9 mi
6:53 PM59 °FLight rain. Overcast.13 mph69%29.81 "Hg10 mi
5:53 PM64 °FOvercast.12 mph58%29.80 "Hg10 mi
4:53 PM66 °FOvercast.14 mph50%29.76 "Hg10 mi
3:53 PM69 °FMostly cloudy.18 mph47%29.74 "Hg10 mi
Weather by CustomWeather, © 2014

See weather overviewHow to use our weather pages